Biloxi, MS

2:04 AM CDT on April 28, 2017 (GMT -0500)
Keesler Air Force Base

Weather History for KBIX - January, 2014

Change the Weather History Date:

Thursday, January 16, 2014

  Actual Average Record
Temperature  
Mean Temperature 41 °F -  
Max Temperature 51 °F 59 °F 76 °F (1950)
Min Temperature 31 °F 39 °F 21 °F (1972)
Degree Days  
Heating Degree Days 24    
Moisture  
Dew Point 30 °F    
Average Humidity 60    
Maximum Humidity 79    
Minimum Humidity 37    
Precipitation  
Precipitation 0.00 in - - ()
Sea Level Pressure  
Sea Level Pressure 30.17 in    
Wind  
Wind Speed 6 mph (SSW)    
Max Wind Speed 14 mph    
Max Gust Speed -    
Visibility 10 miles    
Events      
Averages and records for this station are not official NWS values.
T = Trace of Precipitation, MM = Missing Value Source: NWS Daily Summary

Daily Weather History Graph

Daily Weather History Graph

Search for Another Location

Airport or City:

Trip Planner

Search our weather history database for the weather conditions in past years. The results will help you decide how hot, cold, wet, or windy it might be!

Date:

Astronomy

Jan. 16, 2014 Rise Set
Actual Time 6:52 AM CST 5:18 PM CST
Civil Twilight 6:27 AM CST 5:44 PM CST
Nautical Twilight 5:57 AM CST 6:13 PM CST
Astronomical Twilight 5:28 AM CST 6:42 PM CST
Moon 6:02 PM CST (1/16) 6:52 AM CST (1/16)
Length of Visible Light 11h 17m
Length of Day
10h 25m
Full, 100% of the Moon is Illuminated
Jan 16
Full
Jan 23
Last Quarter
Jan 30
New
Feb 6
First Quarter
Feb 14
Full

Hourly Weather History & Observations

Time (CST) Temp. Windchill Dew Point Humidity Pressure Visibility Wind Dir Wind Speed Gust Speed Precip Events Conditions
12:58 AM 36.1 °F 31.4 °F 21.4 °F 55% 30.21 in 10.0 mi NNE 5.8 mph - N/A   Clear
1:58 AM 33.4 °F - 21.0 °F 60% 30.20 in 10.0 mi NE 2.3 mph - N/A   Clear
2:58 AM 31.3 °F 27.9 °F 21.2 °F 66% 30.20 in 10.0 mi NE 3.5 mph - N/A   Clear
3:58 AM 32.9 °F - 21.7 °F 64% 30.20 in 10.0 mi NNE 2.3 mph - N/A   Clear
4:58 AM 32.0 °F - 21.9 °F 66% 30.20 in 10.0 mi East 2.3 mph - N/A   Clear
5:58 AM 31.3 °F - 22.5 °F 70% 30.20 in 10.0 mi Calm Calm - N/A   Clear
6:58 AM 32.7 °F - 24.6 °F 72% 30.22 in 10.0 mi Calm Calm - N/A   Clear
7:58 AM 34.9 °F - 25.3 °F 68% 30.23 in 10.0 mi NNE 1.2 mph - N/A   Clear
8:58 AM 40.8 °F - 17.4 °F 39% 30.25 in 10.0 mi SE 2.3 mph - N/A   Clear
9:58 AM 44.6 °F 41.4 °F 19.9 °F 37% 30.26 in 10.0 mi South 5.8 mph - N/A   Clear
10:58 AM 46.9 °F - 25.2 °F 43% 30.24 in 10.0 mi SSW 6.9 mph - N/A   Clear
11:58 AM 49.1 °F - 26.6 °F 42% 30.19 in 10.0 mi SSW 8.1 mph - N/A   Clear
12:58 PM 50.9 °F - 28.0 °F 41% 30.15 in 10.0 mi SSW 10.4 mph - N/A   Clear
1:58 PM 51.1 °F - 28.8 °F 42% 30.13 in 10.0 mi SW 9.2 mph - N/A   Clear
2:58 PM 51.6 °F - 31.1 °F 45% 30.12 in 10.0 mi SSW 12.7 mph - N/A   Clear
3:58 PM 51.1 °F - 33.1 °F 50% 30.11 in 10.0 mi SSW 10.4 mph - N/A   Clear
4:58 PM 49.6 °F - 35.2 °F 58% 30.12 in 10.0 mi SW 12.7 mph - N/A   Clear
5:58 PM 48.0 °F - 39.6 °F 73% 30.12 in 10.0 mi SW 10.4 mph - N/A   Clear
6:58 PM 49.3 °F - 41.5 °F 75% 30.12 in 10.0 mi SW 12.7 mph - N/A   Clear
7:58 PM 49.3 °F - 43.0 °F 79% 30.13 in 10.0 mi SW 11.5 mph - N/A   Clear
8:58 PM 49.8 °F - 40.6 °F 71% 30.13 in 10.0 mi SW 13.8 mph - N/A   Clear
9:58 PM 50.0 °F - 40.8 °F 71% 30.13 in 10.0 mi WSW 12.7 mph - N/A   Clear
10:58 PM 50.0 °F - 41.0 °F 71% 30.12 in 10.0 mi WSW 11.5 mph - N/A   Clear
11:58 PM 50.2 °F - 42.6 °F 75% 30.11 in 10.0 mi WSW 11.5 mph - N/A   Partly Cloudy